Regional Weather Roundup
Issued by NWS

Home | Current Version | Previous Version | Text Only | Print | Product List | Glossary On
Versions: 1 2 3 4 5 6 7 8 9 10 11 12 13 14 15 16 17 18 19 20 21 22 23 24 25 26 27 28
000
ASUS45 KPSR 250310
RWRAZ

ARIZONA HOURLY REGIONAL WEATHER ROUNDUP
NATIONAL WEATHER SERVICE PHOENIX AZ
800 PM MST MON JUL 24 2017

NOTE: FAIR INDICATES FEW OR NO CLOUDS BELOW 12,000 FEET WITH NO
SIGNIFICANT WEATHER AND/OR OBSTRUCTIONS TO VISIBILITY.

AZZ001>003-036-250400-
NORTHWEST ARIZONA

CITY           SKY/WX    TMP DP  RH WIND       PRES   REMARKS
KINGMAN        MOCLDY    74  67  78 S14       30.00R
$$

AZZ004>008-015-016-018-250400-
NORTH CENTRAL ARIZONA

CITY           SKY/WX    TMP DP  RH WIND       PRES   REMARKS
GRAND CANYON   MOCLDY    70  56  61 CALM      30.21R
WILLIAMS       MOCLDY    66  59  77 S7        30.22R
PRESCOTT       CLOUDY    73  65  75 S6        30.11R
FLAGSTAFF      CLOUDY    63  62  97 SW8       30.25R
PAYSON         MOCLDY    68  63  83 SE5       30.16S
PAGE           CLOUDY    82  58  43 W7        30.00R
$$

AZZ009>014-017-250400-
NORTHEAST ARIZONA

CITY           SKY/WX    TMP DP  RH WIND       PRES   REMARKS
WINSLOW        CLOUDY    72  65  78 E7        30.10R
SAINT JOHNS    CLOUDY    67  65  93 SE5       30.16R
WINDOW ROCK    CLOUDY    65  56  72 CALM      30.23S
SHOW LOW       CLOUDY    61  59  94 S5        30.23S
$$

AZZ540-542>544-546-548-250400-
GREATER PHOENIX AREA

CITY           SKY/WX    TMP DP  RH WIND       PRES   REMARKS
PHOENIX        MOCLDY    88  68  51 S3        29.84R
BUCKEYE        CLEAR     82  77  83 CALM      29.85R
GLENDALE       PTCLDY    88  73  62 CALM      29.86R
LUKE AFB       CLEAR     85  72  64 NW5       29.84R
DEER VALLEY    PTCLDY    86  71  60 E3        29.86R
SCOTTSDALE     MOCLDY    86  69  56 CALM      29.88R
MESA-FALCON    MOCLDY    86  72  62 S6        29.87R
MESA-GATEWAY   MOCLDY    84  72  65 SE5       29.88R
CHANDLER       MOCLDY    88  72  58 CALM      29.86R
$$

AZZ539-553-250400-
SOUTHWEST MARICOPA COUNTY AND PINAL COUNTY

CITY           SKY/WX    TMP DP  RH WIND       PRES   REMARKS
CASA GRANDE    MOCLDY    86  72  62 N3        29.88R
GILA BEND      PTCLDY    86  75  68 N9        29.81R
$$

AZZ503-504-507>509-250400-
SOUTHEAST ARIZONA

CITY           SKY/WX    TMP DP  RH WIND       PRES   REMARKS
TUCSON         MOCLDY    78  72  81 S6        29.98S
DAVIS-MONTHAN  PTCLDY    77  72  83 SE6       29.97R
RYAN FIELD     CLEAR     79  72  78 SE8       29.96R
NOGALES        MOCLDY    75  68  78 SE5       30.06R
SIERRA VISTA   MOCLDY    71  65  79 N5        30.14R
DOUGLAS        CLOUDY    72  66  81 NW7       30.09R
SAFFORD        MOCLDY    73  70  90 SW5       30.01R
$$

AZZ532-250400-
SOUTHWEST ARIZONA

CITY           SKY/WX    TMP DP  RH WIND       PRES   REMARKS
YUMA           NOT AVBL
$$

CAZ041-043-047-048-061-525>527-560>570-250400-
SOUTHERN CALIFORNIA

CITY           SKY/WX    TMP DP  RH WIND       PRES   REMARKS
DOWNTOWN L.A.  MOCLDY    74  64  71 CALM      29.87R
L.A. AIRPORT   PTCLDY    70  65  84 W6        29.88R
SAN DIEGO      PTCLDY    72  63  73 SW6       29.91R
BURBANK        MOCLDY    75  60  59 S7        29.89R
ONTARIO        MOCLDY    76  63  64 W10       29.89R
RIVERSIDE      PTCLDY    75  65  70 W9        29.88R
PALM SPRINGS   PTCLDY    97  55  24 NW12      29.77R
EL CENTRO NAS  MOCLDY    94  62  34 S8        29.74R
IMPERIAL       MOCLDY    97  63  32 SE8       29.71R
BLYTHE         PTCLDY    94  69  44 E6        29.77R
NEEDLES        PTCLDY    93  68  43 S14       29.80R
$$

NVZ020-UTZ003-250400-
SOUTHERN NEVADA-UTAH

CITY           SKY/WX    TMP DP  RH WIND       PRES   REMARKS
LAS VEGAS      CLOUDY    92  59  33 S10       29.84R
SALT LAKE CITY CLOUDY    92  45  19 NE5       29.89S
$$

NMZ009-TXZ055-250400-
NEW MEXICO-WEST TEXAS

CITY           SKY/WX    TMP DP  RH WIND       PRES   REMARKS
ALBUQUERQUE    CLOUDY    79  57  46 SE6       30.12R
EL PASO        MOCLDY    84  64  50 SE12      30.03R THUNDER
$$


........................KEY........................
SKY/WX - SKY CONDITION/WEATHER
TMP    - TEMPERATURE IN FAHRENHEIT
DP     - DEW POINT IN FAHRENHEIT
RH     - RELATIVE HUMIDITY IN PERCENT
WIND   - DIRECTION AND SPEED IN MILES PER HOUR (MPH)
VRB    - VARIABLE WIND DIRECTION
PRES   - MEAN SEA LEVEL PRESSURE IN INCHES OF MERCURY
         F - FALLING PRESSURE   R - RISING PRESSURE
         S - STEADY PRESSURE
VSB    - VISIBILITY IN MILES
HX     - HEAT INDEX IN FAHRENHEIT
WCI    - WIND CHILL INDEX IN FAHRENHEIT
TC     - TEMPERATURE IN CELSIUS WHICH IS ALSO KNOWN AS
         TEMPERATURE IN CENTIGRADE
AFB    - AIR FORCE BASE
         LUKE AFB IS LUKE AIR FORCE BASE
         DAVIS-MONTHAN IS DAVIS-MONTHAN AIR FORCE BASE
NAS    - NAVAL AIR STATION
         EL CENTRO NAS IS EL CENTRO NAVAL AIR STATION
N/A    - NOT AVAILABLE





USA.gov is the U.S. government's official web portal to all federal, state and local government web resources and services.